Powrót do katalogu

SL-8 DEB

AktywnyLEO
NORAD 39838·DEBRIS·🇷🇺 Russia

Wystrzelony Feb 12, 1991 z Plesetsk Cosmodrome

Loading…

Następne Przeloty (najbliższe 24 godziny)

TLE

Starzejące sięSource: Space-Track

Epoka: Sep 8, 2026, 07:47 UTC

1 39838U 91009DW  26251.32445653 -.00000024  00000-0 -11604-3 0  9991
2 39838  74.1130 104.4903 0232775  55.5800 306.6995 12.10661382298534

Śledź SL-8 DEB w czasie rzeczywistym z AllMySat

Download on the App Store